Regional Weather Roundup
Issued by NWS

Home | Current Version | Previous Version | Text Only | Print | Product List | Glossary Off
Versions: 1 2 3 4 5 6 7 8 9 10 11 12 13 14 15 16 17 18 19 20 21 22 23 24 25 26 27 28 29 30 31 32 33 34 35 36 37 38 39 40 41 42 43 44 45 46 47 48 49 50

000
ASUS43 KOAX 252302
RWRNE

WEATHER ROUNDUP FOR NEBRASKA
NATIONAL WEATHER SERVICE OMAHA NE
500 PM CST TUE NOV 25 2014

NOTES: SATELLITE DATA IS BEING USED TO AUGMENT CLOUD COVER ABOVE
       12000 FEET.
       "FAIR" INDICATES FEW OR NO CLOUDS BELOW 12,000 FEET WITH NO
       SIGNIFICANT WEATHER AND/OR OBSTRUCTIONS TO VISIBILITY.

  * THESE STATIONS DO NOT REPORT WEATHER SUCH AS RAIN...SNOW OR FOG.

NEZ001>004-019>022-054>056-260000-
NEBRASKA PANHANDLE

CITY           SKY/WX    TMP DP  RH WIND       PRES   REMARKS
SCOTTSBLUFF    LGT RAIN  36  32  85 NW14      29.89R WCI  27
ALLIANCE       CLOUDY    39  30  70 NW16      29.85R WCI  30
CHADRON        CLOUDY    49  32  52 NW22G30   29.86R
SIDNEY         CLOUDY    41  26  55 N20       29.87S
$$

NEZ057>060-069>072-079>082-260000-
SOUTHWEST NEBRASKA

CITY           SKY/WX    TMP DP  RH WIND       PRES   REMARKS
NORTH PLATTE   CLOUDY    42  24  49 W7        29.82S
IMPERIAL       CLOUDY    49  19  30 NW8       29.83R
MCCOOK         CLOUDY    47  20  34 CALM      29.84S
$$

NEZ005>010-023>029-035>040-094-260000-
NORTH CENTRAL NEBRASKA

CITY           SKY/WX    TMP DP  RH WIND       PRES   REMARKS
VALENTINE      MOCLDY    39  30  70 NW21G26   29.78R WCI  29
BROKEN BOW     CLOUDY    44  25  47 SW13      29.81F
ORD            CLOUDY    42  27  55 SW15G28   29.82F
$$

NEZ041-046>049-061>064-073>077-083>087-260000-
SOUTH CENTRAL NEBRASKA

CITY           SKY/WX    TMP DP  RH WIND       PRES   REMARKS
GRAND ISLAND   CLOUDY    45  22  40 S13       29.88F
AURORA         CLOUDY    45  23  42 SW9       29.88F
HASTINGS       CLOUDY    45  19  35 SW8G23    29.88F
KEARNEY *      CLOUDY    45  16  31 SW10      29.88S
YORK           CLOUDY    41  25  52 SW7       29.91F
$$

NEZ011>018-030>034-042>045-260000-
NORTHEAST NEBRASKA

CITY           SKY/WX    TMP DP  RH WIND       PRES   REMARKS
NORFOLK        CLOUDY    42  26  53 S12       29.86S
BLAIR          CLOUDY    41  26  55 SE9       29.93F
COLUMBUS *     CLOUDY    43  25  49 S10       29.91S
TEKAMAH        CLOUDY    39  25  57 SE10      29.94F WCI  32
$$

NEZ050>053-065>068-078-088>093-260000-
SOUTHEAST NEBRASKA

CITY           SKY/WX    TMP DP  RH WIND       PRES   REMARKS
LINCOLN        CLOUDY    44  24  45 S9        29.94F
OMAHA EPPLEY   CLOUDY    39  25  57 SE12      29.97F WCI  32
FALLS CITY     CLOUDY    40  23  50 S9        30.01F WCI  34
$$

NEZ044-045-051>053-067-260000-
OMAHA AREA

CITY           SKY/WX    TMP DP  RH WIND       PRES   REMARKS
OMAHA EPPLEY   CLOUDY    39  25  57 SE12      29.97F WCI  32
BLAIR          CLOUDY    41  26  55 SE9       29.93F
OFFUTT AFB     CLOUDY    39  25  57 SE10      29.96F WCI  32
$$


USA.gov is the U.S. government's official web portal to all federal, state and local government web resources and services.